Location: Pabrico
(37.5827°N, 122.0063°W)
Time: 11:30:26
(UTC+00:00)

Cosmos 1666 Rocket - Pass Details

Date: 13 April 2024
Orbit: 600 x 630 km, 82.5° (Epoch: 23 May)

Event Time Altitude Azimuth Distance (km) Brightness Sun altitude
Rises 12:37:13 0° 342° (NNW) 2,925 7.1 -11.8°
Reaches altitude 10° 12:39:38 10° 332° (NNW) 2,011 6.1 -11.3°
Maximum altitude 12:43:36 32° 270° (W) 1,070 4.3 -10.6°
Drops below altitude 10° 12:47:31 10° 206° (SSW) 1,985 5.7 -9.9°
Sets 12:49:54 0° 197° (SSW) 2,882 6.6 -9.4°
